Latest Weather Observations for Jandakot

IDW60901

Issued at 1:15 pm WST Saturday 1 November 2014 (issued every 10 minutes, with the page automatically refreshed every 10 minutes)

About weather observations | Map of Perth area stations | Latest observations for Perth area | Other Formats
Station Details ID: 009172 Name: JANDAKOT AERO Lat: -32.10 Lon: 115.88 Height: 30.0 m
Data from the previous 72 hours. | See also: Recent months at Jandakot
Date/Time
WST
Tmp

°C
App
Tmp
°C
Dew
Point
°C
Rel
Hum
%
Delta-T

°C
Wind Press
QNH
hPa
Press
MSL
hPa
Rain
since
9 am
mm
Dir
 
Spd
km/h
Gust
km/h
Spd
kts
Gust
kts
01/01:00pm 27.7 23.7 3.1 20 12.2 NE 13 22 7 12 1016.0 1015.9 0.0
01/12:30pm 27.7 22.9 2.4 19 12.4 NNW 17 30 9 16 1016.3 1016.2 0.0
01/12:00pm 27.2 22.4 2.8 20 12.0 NNE 17 32 9 17 1016.9 1016.8 0.0
01/11:30am 27.0 21.1 3.8 22 11.6 NNE 24 35 13 19 1017.0 1016.9 0.0
01/11:00am 25.9 20.2 4.7 25 10.7 NE 24 33 13 18 1017.3 1017.2 0.0
01/10:30am 25.3 20.5 5.5 28 10.1 NNE 20 26 11 14 1017.9 1017.8 0.0
01/10:00am 24.5 19.9 6.5 31 9.3 ENE 20 30 11 16 1018.5 1018.4 0.0
01/09:30am 23.3 18.2 6.2 33 8.7 NE 22 28 12 15 1018.5 1018.4 0.0
01/09:00am 21.6 15.7 5.8 35 7.9 ENE 26 33 14 18 1018.6 1018.5 0.0
01/08:30am 20.2 14.6 5.6 38 7.2 NE 24 32 13 17 1018.7 1018.6 0.0
01/08:00am 19.2 13.6 5.5 40 6.7 NE 24 32 13 17 1018.7 1018.6 0.0
01/07:30am 18.3 13.2 6.1 44 6.0 NE 22 33 12 18 1018.7 1018.7 0.0
01/07:00am 17.0 11.4 5.6 47 5.5 NE 24 35 13 19 1018.6 1018.6 0.0
01/06:30am 15.9 11.8 6.2 52 4.7 ENE 17 26 9 14 1018.6 1018.6 0.0
01/06:00am 14.8 10.3 6.3 56 4.1 ENE 19 30 10 16 1018.5 1018.5 0.0
01/05:30am 14.0 9.9 6.3 60 3.7 ENE 17 22 9 12 1018.1 1018.1 0.0
01/05:00am 13.9 9.3 6.6 61 3.5 E 20 30 11 16 1017.7 1017.7 0.0
01/04:30am 14.1 8.8 6.6 60 3.6 E 24 35 13 19 1017.5 1017.5 0.0
01/04:00am 14.3 9.0 6.9 61 3.6 E 24 33 13 18 1017.3 1017.3 0.0
01/03:30am 14.5 9.9 6.7 59 3.8 E 20 32 11 17 1017.5 1017.5 0.0
01/03:00am 14.6 10.6 6.5 58 3.9 E 17 26 9 14 1017.6 1017.6 0.0
01/02:30am 13.9 11.4 6.4 60 3.6 E 9 11 5 6 1017.6 1017.6 0.0
01/02:00am 14.4 11.1 6.3 58 3.9 E 13 19 7 10 1017.6 1017.6 0.0
01/01:30am 14.6 10.8 6.0 56 4.1 E 15 22 8 12 1017.4 1017.4 0.0
01/01:00am 10.3 8.5 7.8 84 1.2 ENE 7 11 4 6 1017.3 1017.3 0.0
01/12:30am 9.2 7.0 7.9 92 0.6 ESE 9 11 5 6 1017.4 1017.4 0.0
01/12:00am 9.5 9.2 8.5 93 0.5 CALM 0 6 0 3 1017.5 1017.5 0.0
 
Date/Time
WST
Tmp

°C
App
Tmp
°C
Dew
Point
°C
Rel
Hum
%
Delta-T

°C
Wind Press
QNH
hPa
Press
MSL
hPa
Rain
since
9 am
mm
Dir
 
Spd
km/h
Gust
km/h
Spd
kts
Gust
kts
31/11:30pm 10.5 8.9 8.9 90 0.8 SSE 7 7 4 4 1017.6 1017.6 0.0
31/11:00pm 11.7 11.7 9.9 89 0.9 CALM 0 0 0 0 1017.8 1017.8 0.0
31/10:30pm 12.0 10.7 9.8 86 1.1 E 7 7 4 4 1017.9 1017.9 0.0
31/10:00pm 14.8 13.6 11.6 81 1.7 SSW 9 13 5 7 1018.1 1018.1 0.0
31/09:30pm 15.3 14.0 11.4 77 2.1 SSW 9 11 5 6 1018.1 1018.1 0.0
31/09:00pm 15.2 14.1 11.9 81 1.8 SW 9 13 5 7 1018.2 1018.2 0.0
31/08:30pm 15.1 15.2 11.4 78 2.0 SSW 2 6 1 3 1018.1 1018.1 0.0
31/08:00pm 16.8 16.1 12.1 74 2.6 SW 7 9 4 5 1017.7 1017.7 0.0
31/07:30pm 17.7 15.8 11.7 68 3.3 SSW 13 17 7 9 1017.5 1017.5 0.0
31/07:00pm 18.2 16.1 11.2 63 3.8 SSW 13 24 7 13 1017.4 1017.4 0.0
31/06:30pm 19.0 16.1 10.9 59 4.4 SSW 17 24 9 13 1017.2 1017.2 0.0
31/06:00pm 20.0 16.6 10.4 54 5.2 SW 19 26 10 14 1017.1 1017.1 0.0
31/05:30pm 20.9 17.0 9.5 48 6.1 SW 20 30 11 16 1016.7 1016.7 0.0
31/05:00pm 21.3 17.2 8.6 44 6.7 SW 20 26 11 14 1016.6 1016.6 0.0
31/04:30pm 21.5 16.2 8.6 43 6.8 SSW 26 33 14 18 1016.3 1016.3 0.0
31/04:00pm 22.1 17.4 9.2 43 6.9 WSW 24 32 13 17 1016.0 1016.0 0.0
31/03:30pm 22.3 17.4 8.5 41 7.3 SW 24 32 13 17 1015.9 1015.9 0.0
31/03:00pm 22.1 16.9 9.0 43 7.0 SW 26 37 14 20 1015.9 1015.9 0.0
31/02:30pm 21.7 16.4 8.4 42 7.0 SW 26 33 14 18 1015.8 1015.8 0.0
31/02:00pm 22.8 17.1 8.5 40 7.6 WSW 28 35 15 19 1016.1 1016.1 0.0
31/01:30pm 23.7 18.6 7.5 35 8.5 WSW 24 33 13 18 1016.3 1016.3 0.0
31/01:00pm 23.7 18.3 2.2 24 10.2 S 20 35 11 19 1016.6 1016.6 0.0
31/12:30pm 22.8 17.6 3.3 28 9.4 SE 20 24 11 13 1016.8 1016.8 0.0
31/12:00pm 22.4 17.3 2.9 27 9.3 SSW 19 24 10 13 1016.9 1016.9 0.0
31/11:30am 20.8 16.2 3.9 33 8.1 ESE 17 24 9 13 1017.2 1017.2 0.0
31/11:00am 20.4 15.6 4.8 36 7.6 SSE 19 26 10 14 1017.4 1017.4 0.0
31/10:30am 19.5 14.6 4.2 36 7.3 SSE 19 33 10 18 1017.7 1017.7 0.0
31/10:00am 19.2 13.3 4.1 37 7.2 SSE 24 33 13 18 1017.7 1017.7 0.0
31/09:30am 18.5 12.5 3.6 37 7.0 SE 24 32 13 17 1017.7 1017.7 0.0
31/09:00am 18.0 13.4 5.4 43 6.1 SSE 19 28 10 15 1017.6 1017.6 0.0
31/08:30am 17.7 13.1 6.3 47 5.6 SSE 20 28 11 15 1017.5 1017.5 0.0
31/08:00am 16.7 12.2 8.5 58 4.2 S 22 32 12 17 1017.4 1017.4 0.0
31/07:30am 16.0 11.7 9.4 65 3.4 S 22 33 12 18 1017.1 1017.1 0.0
31/07:00am 15.5 12.2 10.8 73 2.5 S 19 24 10 13 1016.9 1016.9 0.0
31/06:30am 14.5 11.8 11.7 83 1.5 S 17 24 9 13 1016.6 1016.6 0.0
31/06:00am 14.2 10.8 11.4 83 1.5 S 20 28 11 15 1016.2 1016.2 0.0
31/05:30am 14.2 11.0 11.4 83 1.5 S 19 26 10 14 1015.8 1015.8 0.0
31/05:00am 14.6 11.9 12.8 89 1.0 S 19 28 10 15 1015.4 1015.4 0.0
31/04:30am 14.7 13.4 13.8 94 0.5 S 13 20 7 11 1014.9 1014.9 0.0
31/04:00am 14.9 12.4 14.0 94 0.5 S 20 30 11 16 1014.4 1014.4 0.0
31/03:45am 15.0 11.3 13.9 93 0.6 S 26 33 14 18 1014.4 1014.4 0.0
31/03:30am 16.0 12.3 13.9 87 1.2 SSW 26 39 14 21 1014.2 1014.1 0.0
31/03:00am 16.9 15.9 13.3 79 2.0 WSW 11 17 6 9 1013.9 1013.8 0.0
31/02:30am 16.8 14.9 13.0 78 2.1 WSW 15 20 8 11 1014.0 1013.9 0.0
31/02:00am 16.8 14.4 12.5 76 2.4 SW 17 32 9 17 1014.0 1013.9 0.0
31/01:30am 15.9 14.8 12.1 78 2.1 WSW 9 13 5 7 1014.0 1013.9 0.0
31/01:00am 15.0 14.5 12.6 85 1.3 W 7 11 4 6 1014.3 1014.3 0.0
31/12:30am 15.4 14.6 12.9 85 1.4 W 9 11 5 6 1014.8 1014.8 0.0
31/12:00am 16.7 13.7 11.9 73 2.6 W 19 28 10 15 1014.9 1014.9 0.0
 
Date/Time
WST
Tmp

°C
App
Tmp
°C
Dew
Point
°C
Rel
Hum
%
Delta-T

°C
Wind Press
QNH
hPa
Press
MSL
hPa
Rain
since
9 am
mm
Dir
 
Spd
km/h
Gust
km/h
Spd
kts
Gust
kts
30/11:30pm 16.4 13.8 10.8 69 3.0 SW 15 20 8 11 1015.1 1015.1 0.0
30/11:00pm 16.8 14.0 11.2 69 3.0 WSW 17 26 9 14 1015.2 1015.2 0.0
30/10:30pm 16.7 15.2 14.1 85 1.5 W 15 22 8 12 1015.3 1015.3 0.0
30/10:00pm 17.1 14.9 12.2 73 2.7 SW 15 20 8 11 1015.4 1015.4 0.0
30/09:30pm 17.5 14.6 12.2 71 2.9 SW 19 26 10 14 1015.6 1015.6 0.0
30/09:00pm 17.3 14.6 11.6 69 3.1 SW 17 20 9 11 1015.6 1015.6 0.0
30/08:30pm 17.3 14.3 10.8 65 3.5 WSW 17 24 9 13 1015.7 1015.7 0.0
30/08:00pm 17.8 14.4 11.4 66 3.5 SW 20 35 11 19 1015.6 1015.6 0.0
30/07:30pm 17.9 14.8 10.2 60 4.1 SW 17 26 9 14 1015.2 1015.2 0.0
30/07:00pm 17.9 14.0 8.6 54 4.8 SW 19 26 10 14 1015.1 1015.1 0.0
30/06:30pm 17.9 14.6 10.9 63 3.8 SW 19 28 10 15 1014.9 1014.9 0.0
30/06:00pm 18.1 14.2 10.9 63 3.9 SW 22 32 12 17 1014.6 1014.6 0.0
30/05:30pm 18.3 14.5 11.1 63 3.9 SW 22 28 12 15 1014.5 1014.5 0.0
30/05:00pm 18.7 14.2 9.9 56 4.7 SW 24 32 13 17 1014.3 1014.3 0.0
30/04:30pm 18.8 14.0 8.8 52 5.2 SW 24 35 13 19 1014.3 1014.3 0.0
30/04:00pm 19.6 14.3 8.5 48 5.8 WSW 26 39 14 21 1014.3 1014.3 0.0
30/03:30pm 19.6 15.1 9.9 53 5.2 SSW 24 32 13 17 1014.1 1014.0 0.0
30/03:00pm 21.2 15.7 9.2 46 6.4 WSW 28 37 15 20 1013.9 1013.8 0.0
30/02:30pm 20.0 15.5 10.2 53 5.3 SW 24 33 13 18 1014.0 1013.9 0.0
30/02:00pm 20.7 16.5 9.9 50 5.8 SW 22 32 12 17 1013.9 1013.8 0.0
30/01:30pm 20.5 15.8 9.4 49 5.9 WSW 24 39 13 21 1014.1 1014.0 0.0
30/01:00pm 21.2 17.0 9.7 47 6.2 WSW 22 33 12 18 1014.1 1014.0 0.0
30/12:30pm 21.0 17.1 9.6 48 6.1 WSW 20 28 11 15 1014.3 1014.3 0.0
30/12:00pm 20.8 16.6 11.2 54 5.3 WSW 24 30 13 16 1014.5 1014.5 0.0
30/11:30am 20.1 17.0 12.2 60 4.4 SW 20 32 11 17 1014.5 1014.5 0.0
30/11:00am 19.8 17.0 13.3 66 3.7 SW 20 28 11 15 1014.4 1014.4 0.0
30/10:30am 18.6 18.1 13.7 73 2.8 SSW 9 19 5 10 1014.5 1014.5 0.0
30/10:12am 18.4 17.9 13.8 74 2.6 SSW 9 15 5 8 1014.6 1014.6 0.0
30/10:00am 17.6 16.7 13.7 78 2.2 SSW 11 15 6 8 1014.7 1014.7 0.0
30/09:30am 17.3 16.8 13.8 80 2.0 SW 9 15 5 8 1014.9 1014.9 0.0
30/09:00am 16.9 16.7 13.5 80 1.9 SSW 7 11 4 6 1015.0 1015.0 0.0
30/08:30am 16.4 15.3 13.2 81 1.8 SW 11 17 6 9 1015.0 1015.0 0.0
30/08:00am 16.1 15.3 13.0 82 1.7 S 9 13 5 7 1014.9 1014.9 0.0
30/07:30am 15.5 14.6 12.6 83 1.6 SSW 9 11 5 6 1014.7 1014.7 0.0
30/07:00am 14.8 14.2 12.4 85 1.3 S 7 13 4 7 1014.6 1014.6 0.0
30/06:56am 14.6 13.6 12.2 85 1.3 S 9 13 5 7 1014.6 1014.6 0.0
30/06:30am 13.9 13.3 12.2 89 0.9 SSE 7 11 4 6 1014.6 1014.6 0.0
30/06:00am 13.4 12.9 12.1 92 0.7 SSE 6 7 3 4 1014.5 1014.5 0.0
30/05:30am 13.1 12.6 12.0 93 0.6 S 6 9 3 5 1014.3 1014.3 0.0
30/05:00am 12.7 11.9 11.6 93 0.6 SSE 7 9 4 5 1014.0 1013.9 0.0
30/04:30am 13.1 12.0 12.0 93 0.6 S 9 13 5 7 1013.8 1013.7 0.0
30/04:00am 13.0 12.4 12.3 95 0.4 S 7 11 4 6 1013.7 1013.6 0.0
30/03:30am 13.3 12.9 12.4 94 0.5 SSE 6 7 3 4 1013.8 1013.7 0.0
30/03:00am 14.0 13.7 13.3 96 0.4 SE 7 9 4 5 1013.7 1013.6 0.0
30/02:30am 15.1 14.6 13.7 91 0.8 SSW 9 15 5 8 1013.6 1013.5 0.0
30/02:00am 15.1 14.6 13.7 91 0.8 SW 9 13 5 7 1013.4 1013.3 0.0
30/01:30am 15.7 15.5 13.7 88 1.1 SSW 7 11 4 6 1013.5 1013.4 0.0
30/01:00am 16.3 15.1 14.0 86 1.3 SSW 13 19 7 10 1013.6 1013.5 0.0
30/12:30am 16.8 15.3 14.2 85 1.5 SSW 15 19 8 10 1013.8 1013.7 0.0
30/12:00am 17.1 16.1 14.5 85 1.5 SW 13 17 7 9 1013.8 1013.7 0.0
 
Date/Time
WST
Tmp

°C
App
Tmp
°C
Dew
Point
°C
Rel
Hum
%
Delta-T

°C
Wind Press
QNH
hPa
Press
MSL
hPa
Rain
since
9 am
mm
Dir
 
Spd
km/h
Gust
km/h
Spd
kts
Gust
kts
29/11:30pm 17.3 16.3 14.5 83 1.6 SW 13 17 7 9 1014.0 1013.9 0.0
29/11:00pm 17.2 16.7 14.8 86 1.4 SW 11 13 6 7 1014.2 1014.1 0.0
29/10:30pm 17.3 17.3 15.1 87 1.3 SW 9 11 5 6 1014.0 1013.9 0.0
29/10:00pm 17.8 17.4 15.2 85 1.5 SSW 11 17 6 9 1014.0 1013.9 0.0
29/09:30pm 18.0 17.3 15.3 84 1.6 SSW 13 19 7 10 1014.0 1013.9 0.0
29/09:00pm 18.1 17.4 15.4 84 1.6 SSW 13 19 7 10 1013.9 1013.8 0.0
29/08:30pm 18.4 16.5 15.2 81 1.9 SSW 19 26 10 14 1013.6 1013.5 0.0
29/08:00pm 18.3 17.3 15.6 84 1.6 SW 15 20 8 11 1013.6 1013.5 0.0
29/07:30pm 18.7 17.8 15.8 83 1.7 SW 15 20 8 11 1013.4 1013.3 0.0
29/07:00pm 19.5 18.2 15.8 79 2.2 WSW 17 26 9 14 1013.2 1013.1 0.0
29/06:30pm 21.2 20.7 15.9 72 3.2 WSW 13 17 7 9 1012.6 1012.5 0.0
29/06:00pm 22.6 22.1 14.8 61 4.6 SW 11 15 6 8 1012.2 1012.1 0.0
29/05:30pm 22.7 21.2 15.3 63 4.4 SW 17 26 9 14 1012.5 1012.4 0.0
29/05:00pm 23.0 19.2 14.7 59 4.9 SW 28 35 15 19 1012.2 1012.1 0.0
29/04:30pm 24.0 20.0 15.2 58 5.3 SW 30 37 16 20 1011.9 1011.8 0.0
29/04:00pm 25.4 22.4 15.9 55 5.8 WSW 26 32 14 17 1012.3 1012.2 0.0
29/03:30pm 26.4 24.7 16.2 53 6.3 WSW 20 28 11 15 1012.1 1012.0 0.0
29/03:00pm 27.0 25.0 16.5 52 6.5 WSW 22 28 12 15 1012.1 1012.0 0.0
29/02:30pm 26.9 24.8 16.2 52 6.6 WSW 22 28 12 15 1012.0 1011.9 0.0
29/02:00pm 27.1 24.6 16.2 51 6.7 WSW 24 28 13 15 1012.2 1012.1 0.0
29/01:30pm 27.1 25.0 15.3 48 7.2 SSW 20 26 11 14 1012.5 1012.4 0.0

Latest Capital City Observations: Canberra | Sydney | Melbourne | Brisbane | Adelaide | Perth | Hobart | Darwin

Other Formats:

Comma delimited format used in spreadsheet applications
http://www.bom.gov.au/fwo/IDW60901/IDW60901.94609.axf

JavaScript Object Notation format (JSON) in row-major order
http://www.bom.gov.au/fwo/IDW60901/IDW60901.94609.json